IBUKIYAMA Weather Reports


time (UTC)temp
F
wind
direction
speed
knots
gust
knots
rain 1hr
in
rain 24hr
in
rain mn
in
humidity
%
barometer
mb
20260504141037 35 282 7.8 20.9 0.00 0.20 0.03 98 871.9
20260504081021 39 301 18.2 26.9 0.00 0.43 0.03 99 866.8
20260504045018 43 314 7.0 17.4 0.00 2.05 0.02 99 865.7
20260504044024 44 310 8.7 19.1 0.00 2.05 0.02 99 865.7
20260504043045 44 359 5.2 12.2 0.00 2.05 0.02 99 865.3
20260504042016 44 309 4.3 12.2 0.00 2.05 0.02 99 865.4
20260504041048 44 311 4.3 13.0 0.00 2.05 0.02 99 865.6
20260504040024 44 322 3.5 8.7 0.00 2.05 0.02 99 865.6
20260504035025 45 305 3.5 7.8 0.00 2.40 0.02 99 865.3
20260504034027 45 318 3.5 7.0 0.00 2.40 0.02 99 865.6
20260504033050 45 359 4.3 11.3 0.00 2.40 0.02 99 865.3
20260504032051 45 359 6.1 12.2 0.00 2.40 0.02 99 865.4
20260504031030 46 293 7.0 10.4 0.00 2.40 0.02 99 865.3
20260504030050 46 319 3.5 10.4 0.00 2.40 0.02 99 865.3
20260504025031 47 359 6.1 12.2 0.00 2.60 0.02 99 865.3
20260504024034 46 359 7.0 13.9 0.00 2.60 0.02 99 865.2
20260504023026 47 277 8.7 20.9 0.00 2.60 0.02 99 865.2
20260504022033 48 277 7.0 15.6 0.00 2.60 0.02 99 865.1
20260504021037 48 295 8.7 14.8 0.00 2.60 0.02 99 865.3
20260504020024 48 293 7.8 13.9 0.00 2.60 0.02 99 865.4
20260504015049 48 359 9.6 17.4 0.00 2.60 0.02 99 865.4
20260504014052 48 274 9.6 16.5 0.00 2.60 0.02 99 865.1
20260504013037 48 297 7.0 15.6 0.00 2.60 0.02 99 865.4
20260504012042 48 311 5.2 13.0 0.00 2.60 0.02 99 865.4
20260504011017 48 359 7.8 19.1 0.00 2.60 0.02 99 865.4
20260504010017 48 359 7.8 13.9 0.00 2.60 0.02 99 865.4
20260504005041 47 325 6.1 11.3 0.00 2.60 0.02 99 865.2
20260504004039 47 295 5.2 10.4 0.00 2.60 0.02 99 865.4
20260504003023 47 303 4.3 7.8 0.00 2.60 0.02 99 865.4
20260504002028 47 301 4.3 8.7 0.00 2.60 0.02 99 865.5
20260504001032 47 306 5.2 9.6 0.00 2.60 0.02 99 865.5
20260504000030 48 359 3.5 7.8 0.00 2.60 0.02 99 865.5
20260503235019 48 291 4.3 7.8 0.00 2.60 0.02 99 865.4
20260503234025 48 318 5.2 9.6 0.00 2.60 0.02 99 865.5
20260503233046 48 307 3.5 7.8 0.00 2.60 0.02 99 865.4
20260503232031 48 293 3.5 9.6 0.00 2.60 0.02 99 865.5
20260503231027 49 359 4.3 9.6 0.00 2.60 0.02 99 865.2
20260503230033 49 283 4.3 9.6 0.00 2.60 0.02 99 865.2
20260503225016 49 289 4.3 10.4 0.00 2.60 0.02 99 865.2
20260503224037 49 359 6.1 11.3 0.00 2.60 0.02 99 865.1
20260503223017 49 359 6.1 13.0 0.00 2.60 0.02 99 864.9
20260503222019 49 359 7.0 12.2 0.00 2.60 0.02 99 864.8
20260503221024 49 291 6.1 11.3 0.00 2.60 0.02 99 864.6
20260503220020 49 300 7.0 11.3 0.00 2.60 0.02 99 864.5
20260503215027 49 359 6.1 10.4 0.00 2.60 0.02 99 864.3
20260503214031 50 325 5.2 14.8 0.00 2.60 0.02 99 864.4
20260503213035 50 285 9.6 15.6 0.00 2.60 0.02 99 864.4
20260503212036 50 289 7.8 14.8 0.00 2.60 0.02 99 864.3
20260503211035 50 305 7.0 14.8 0.00 2.60 0.02 99 864.2
20260503210037 50 306 7.0 13.0 0.00 2.60 0.02 99 864.1
20260503205041 50 323 7.8 13.9 0.00 2.60 0.02 99 864.1
20260503204021 51 291 11.3 18.2 0.00 2.60 0.02 99 863.9
20260503203014 51 302 7.8 13.9 0.00 2.60 0.02 99 863.9
20260503202044 51 359 7.8 15.6 0.00 2.60 0.02 99 863.6
20260503201019 51 359 9.6 16.5 0.00 2.60 0.02 99 863.7
20260503200025 51 359 9.6 15.6 0.00 2.60 0.02 99 863.6
20260503195032 51 297 8.7 15.6 0.00 2.60 0.02 99 863.6
20260503194033 52 293 7.8 18.2 0.00 2.60 0.02 99 863.5
20260503193015 52 332 9.6 16.5 0.04 2.60 0.02 99 863.5
20260503192022 52 283 8.7 15.6 0.04 2.60 0.02 99 863.3
20260503191029 52 301 7.8 13.9 0.04 2.60 0.02 99 863.0
20260503190027 52 315 8.7 17.4 0.04 2.60 0.02 99 863.2
20260503185027 52 359 7.0 15.6 0.04 2.60 0.02 99 863.2
20260503184028 53 320 7.0 13.9 0.04 2.60 0.02 99 863.1
20260503183032 54 272 7.8 15.6 0.00 2.56 0.01 99 863.2
20260503182026 55 359 8.7 16.5 0.00 2.56 0.01 99 862.7
20260503181024 55 298 8.7 15.6 0.00 2.56 0.01 99 862.6
20260503180031 56 290 8.7 15.6 0.00 2.56 0.01 99 862.4
20260503175015 56 359 11.3 20.0 0.00 2.56 0.01 99 862.2
20260503174042 56 301 13.0 20.0 0.00 2.56 0.01 99 862.1
20260503173019 56 312 13.9 20.9 0.00 2.56 0.01 99 862.2
20260503172019 56 302 13.0 20.0 0.00 2.56 0.01 99 862.5
20260503171024 57 300 10.4 17.4 0.00 2.56 0.01 99 862.8